Year,Month,Day,Hour,Minute,Value (Times are PST for temperature in C)
2008,04,28,00,00,9.40
2008,04,28,00,01,9.40
2008,04,28,00,02,9.40
2008,04,28,00,03,9.40
2008,04,28,00,04,9.40
2008,04,28,00,05,9.40
2008,04,28,00,06,9.40
2008,04,28,00,07,9.40
2008,04,28,00,08,9.40
2008,04,28,00,09,9.40
2008,04,28,00,10,9.30
2008,04,28,00,11,9.30
2008,04,28,00,12,9.30
2008,04,28,00,13,9.30
2008,04,28,00,14,9.30
2008,04,28,00,15,9.30
2008,04,28,00,16,9.30
2008,04,28,00,17,9.30
2008,04,28,00,18,9.30
2008,04,28,00,19,9.30
2008,04,28,00,20,9.30
2008,04,28,00,21,9.30
2008,04,28,00,22,9.30
2008,04,28,00,23,9.30
2008,04,28,00,24,9.30
2008,04,28,00,25,9.30
2008,04,28,00,26,9.30
2008,04,28,00,27,9.30
2008,04,28,00,28,9.30
2008,04,28,00,29,9.30
2008,04,28,00,30,9.30
2008,04,28,00,31,9.30
2008,04,28,00,32,9.30
2008,04,28,00,33,9.30
2008,04,28,00,34,9.30
2008,04,28,00,35,9.20
2008,04,28,00,36,9.20
2008,04,28,00,37,9.20
2008,04,28,00,38,9.20
2008,04,28,00,39,9.20
2008,04,28,00,40,9.20
2008,04,28,00,41,9.20
2008,04,28,00,42,9.20
2008,04,28,00,43,9.20
2008,04,28,00,44,9.20
2008,04,28,00,45,9.20
2008,04,28,00,46,9.20
2008,04,28,00,47,9.20
2008,04,28,00,48,9.20
2008,04,28,00,49,9.20
2008,04,28,00,50,9.20
2008,04,28,01,02,9.10
2008,04,28,01,03,9.00
2008,04,28,01,04,9.10
2008,04,28,01,05,9.10
2008,04,28,01,06,9.00
2008,04,28,01,07,9.00
2008,04,28,01,08,9.00
2008,04,28,01,09,9.00
2008,04,28,01,10,9.00
2008,04,28,01,11,9.00
2008,04,28,01,12,8.90
2008,04,28,01,13,8.90
2008,04,28,01,14,8.90
2008,04,28,01,15,8.90
2008,04,28,01,16,8.90
2008,04,28,01,17,8.90
2008,04,28,01,18,8.90
2008,04,28,01,19,8.90
2008,04,28,01,20,8.90
2008,04,28,01,21,8.80
2008,04,28,01,22,8.80
2008,04,28,01,23,8.80
2008,04,28,01,24,8.80
2008,04,28,01,25,8.80
2008,04,28,01,26,8.80
2008,04,28,01,27,8.80
2008,04,28,01,28,8.80
2008,04,28,01,29,8.80
2008,04,28,01,30,8.80
2008,04,28,01,31,8.80
2008,04,28,01,32,8.80
2008,04,28,01,33,8.80
2008,04,28,01,34,8.80
2008,04,28,01,35,8.80
2008,04,28,01,36,8.70
2008,04,28,01,37,8.70
2008,04,28,01,38,8.70
2008,04,28,01,39,8.70
2008,04,28,01,40,8.70
2008,04,28,01,41,8.70
2008,04,28,01,42,8.70
2008,04,28,01,43,8.70
2008,04,28,01,44,8.70
2008,04,28,01,45,8.70
2008,04,28,01,46,8.70
2008,04,28,01,47,8.70
2008,04,28,01,48,8.70
2008,04,28,01,49,8.70
2008,04,28,01,50,8.70
2008,04,28,01,51,8.70
2008,04,28,01,52,8.70
2008,04,28,01,53,8.70
2008,04,28,01,54,8.70
2008,04,28,01,55,8.70
2008,04,28,01,56,8.70
2008,04,28,01,57,8.70
2008,04,28,01,58,8.70
2008,04,28,01,59,8.70
2008,04,28,02,00,8.70
2008,04,28,02,01,8.70
2008,04,28,02,02,8.70
2008,04,28,02,03,8.80
2008,04,28,02,04,8.80
2008,04,28,02,05,8.80
2008,04,28,02,06,8.80
2008,04,28,02,07,8.80
2008,04,28,02,08,8.80
2008,04,28,02,09,8.70
2008,04,28,02,10,8.70
2008,04,28,02,11,8.70
2008,04,28,02,12,8.70
2008,04,28,02,13,8.70
2008,04,28,02,14,8.80
2008,04,28,02,15,8.80
2008,04,28,02,16,8.80
2008,04,28,02,17,8.80
2008,04,28,02,18,8.80
2008,04,28,02,19,8.80
2008,04,28,02,20,8.80
2008,04,28,02,21,8.80
2008,04,28,02,22,8.80
2008,04,28,02,23,8.80
2008,04,28,02,24,8.80
2008,04,28,02,25,8.80
2008,04,28,02,26,8.70
2008,04,28,02,27,8.80
2008,04,28,02,28,8.70
2008,04,28,02,29,8.70
2008,04,28,02,30,8.70
2008,04,28,02,31,8.70
2008,04,28,02,32,8.70
2008,04,28,02,33,8.70
2008,04,28,02,34,8.70
2008,04,28,02,35,8.70
2008,04,28,02,36,8.70
2008,04,28,02,37,8.70
2008,04,28,02,38,8.70
2008,04,28,02,39,8.70
2008,04,28,02,40,8.80
2008,04,28,02,41,8.80
2008,04,28,02,42,8.80
2008,04,28,02,43,8.70
2008,04,28,02,44,8.70
2008,04,28,02,45,8.70
2008,04,28,02,46,8.70
2008,04,28,02,47,8.80
2008,04,28,02,48,8.80
2008,04,28,02,49,8.80
2008,04,28,02,50,8.80
2008,04,28,02,51,8.80
2008,04,28,02,52,8.80
2008,04,28,02,53,8.80
2008,04,28,02,54,8.80
2008,04,28,02,55,8.80
2008,04,28,02,56,8.80
2008,04,28,02,57,8.80
2008,04,28,02,58,8.80
2008,04,28,02,59,8.80
2008,04,28,03,00,8.70
2008,04,28,03,01,8.70
2008,04,28,03,02,8.70
2008,04,28,03,03,8.70
2008,04,28,03,04,8.70
2008,04,28,03,05,8.70
2008,04,28,03,06,8.70
2008,04,28,03,07,8.70
2008,04,28,03,08,8.70
2008,04,28,03,09,8.70
2008,04,28,03,10,8.70
2008,04,28,03,11,8.70
2008,04,28,03,12,8.70
2008,04,28,03,13,8.70
2008,04,28,03,14,8.70
2008,04,28,03,15,8.70
2008,04,28,03,16,8.70
2008,04,28,03,17,8.70
2008,04,28,03,18,8.70
2008,04,28,03,19,8.70
2008,04,28,03,20,8.70
2008,04,28,03,21,8.70
2008,04,28,03,22,8.70
2008,04,28,03,23,8.80
2008,04,28,03,24,8.80
2008,04,28,03,25,8.80
2008,04,28,03,26,8.80
2008,04,28,03,27,8.80
2008,04,28,03,28,8.80
2008,04,28,03,29,8.80
2008,04,28,03,30,8.70
2008,04,28,03,31,8.70
2008,04,28,03,32,8.70
2008,04,28,03,33,8.70
2008,04,28,03,34,8.70
2008,04,28,03,35,8.70
2008,04,28,03,36,8.70
2008,04,28,03,37,8.70
2008,04,28,03,38,8.70
2008,04,28,03,39,8.70
2008,04,28,03,40,8.60
2008,04,28,03,41,8.60
2008,04,28,03,42,8.60
2008,04,28,03,43,8.60
2008,04,28,03,44,8.60
2008,04,28,03,45,8.60
2008,04,28,03,46,8.60
2008,04,28,03,47,8.60
2008,04,28,03,48,8.60
2008,04,28,03,49,8.60
2008,04,28,03,50,8.60
2008,04,28,03,51,8.60
2008,04,28,03,52,8.60
2008,04,28,03,53,8.60
2008,04,28,03,54,8.60
2008,04,28,03,55,8.60
2008,04,28,03,56,8.60
2008,04,28,03,57,8.60
2008,04,28,03,58,8.60
2008,04,28,03,59,8.60
2008,04,28,04,00,8.60
2008,04,28,04,01,8.70
2008,04,28,04,02,8.70
2008,04,28,04,03,8.70
2008,04,28,04,04,8.70
2008,04,28,04,05,8.60
2008,04,28,04,06,8.60
2008,04,28,04,07,8.60
2008,04,28,04,08,8.60
2008,04,28,04,09,8.60
2008,04,28,04,10,8.60
2008,04,28,04,11,8.60
2008,04,28,04,12,8.50
2008,04,28,04,13,8.50
2008,04,28,04,14,8.50
2008,04,28,04,15,8.50
2008,04,28,04,16,8.50
2008,04,28,04,17,8.50
2008,04,28,04,18,8.50
2008,04,28,04,19,8.50
2008,04,28,04,20,8.50
2008,04,28,04,21,8.50
2008,04,28,04,22,8.50
2008,04,28,04,23,8.50
2008,04,28,04,24,8.50
2008,04,28,04,25,8.50
2008,04,28,04,26,8.50
2008,04,28,04,27,8.50
2008,04,28,04,28,8.50
2008,04,28,04,29,8.50
2008,04,28,04,30,8.50
2008,04,28,04,31,8.50
2008,04,28,04,32,8.50
2008,04,28,04,33,8.50
2008,04,28,04,34,8.50
2008,04,28,04,35,8.60
2008,04,28,04,36,8.60
2008,04,28,04,37,8.60
2008,04,28,04,38,8.60
2008,04,28,04,39,8.60
2008,04,28,04,40,8.60
2008,04,28,04,41,8.60
2008,04,28,04,42,8.60
2008,04,28,04,43,8.60
2008,04,28,04,44,8.60
2008,04,28,04,45,8.50
2008,04,28,04,46,8.50
2008,04,28,04,47,8.50
2008,04,28,04,48,8.50
2008,04,28,04,49,8.50
2008,04,28,04,50,8.50
2008,04,28,04,51,8.50
2008,04,28,04,52,8.50
2008,04,28,04,53,8.50
2008,04,28,04,54,8.50
2008,04,28,04,55,8.50
2008,04,28,04,56,8.50
2008,04,28,04,57,8.50
2008,04,28,04,58,8.50
2008,04,28,04,59,8.50
2008,04,28,05,00,8.50
2008,04,28,05,01,8.50
2008,04,28,05,02,8.50
2008,04,28,05,03,8.50
2008,04,28,05,04,8.50
2008,04,28,05,05,8.50
2008,04,28,05,06,8.50
2008,04,28,05,07,8.60
2008,04,28,05,08,8.60
2008,04,28,05,09,8.60
2008,04,28,05,10,8.60
2008,04,28,05,11,8.60
2008,04,28,05,12,8.60
2008,04,28,05,13,8.60
2008,04,28,05,14,8.60
2008,04,28,05,15,8.60
2008,04,28,05,16,8.60
2008,04,28,05,17,8.50
2008,04,28,05,18,8.50
2008,04,28,05,19,8.50
2008,04,28,05,20,8.40
2008,04,28,05,21,8.40
2008,04,28,05,22,8.40
2008,04,28,05,23,8.40
2008,04,28,05,24,8.40
2008,04,28,05,25,8.40
2008,04,28,05,26,8.40
2008,04,28,05,27,8.40
2008,04,28,05,28,8.40
2008,04,28,05,29,8.40
2008,04,28,05,30,8.40
2008,04,28,05,31,8.40
2008,04,28,05,32,8.40
2008,04,28,05,33,8.40
2008,04,28,05,34,8.40
2008,04,28,05,35,8.40
2008,04,28,05,36,8.40
2008,04,28,05,37,8.40
2008,04,28,05,38,8.40
2008,04,28,05,39,8.40
2008,04,28,05,40,8.40
2008,04,28,05,41,8.40
2008,04,28,05,42,8.40
2008,04,28,05,43,8.40
2008,04,28,05,44,8.40
2008,04,28,05,45,8.30
2008,04,28,05,46,8.30
2008,04,28,05,47,8.30
2008,04,28,05,48,8.30
2008,04,28,05,49,8.30
2008,04,28,05,50,8.30
2008,04,28,05,51,8.30
2008,04,28,05,52,8.30
2008,04,28,05,53,8.30
2008,04,28,05,54,8.30
2008,04,28,05,55,8.30
2008,04,28,05,56,8.30
2008,04,28,05,57,8.30
2008,04,28,05,58,8.30
2008,04,28,05,59,8.30
2008,04,28,06,00,8.30
2008,04,28,06,01,8.30
2008,04,28,06,02,8.30
2008,04,28,06,03,8.30
2008,04,28,06,04,8.30
2008,04,28,06,05,8.30
2008,04,28,06,06,8.30
2008,04,28,06,07,8.30
2008,04,28,06,08,8.30
2008,04,28,06,09,8.30
2008,04,28,06,10,8.30
2008,04,28,06,11,8.30
2008,04,28,06,12,8.30
2008,04,28,06,13,8.30
2008,04,28,06,14,8.30
2008,04,28,06,15,8.30
2008,04,28,06,16,8.30
2008,04,28,06,17,8.30
2008,04,28,06,18,8.30
2008,04,28,06,19,8.30
2008,04,28,06,20,8.30
2008,04,28,06,21,8.30
2008,04,28,06,22,8.30
2008,04,28,06,23,8.30
2008,04,28,06,24,8.30
2008,04,28,06,25,8.30
2008,04,28,06,26,8.30
2008,04,28,06,27,8.30
2008,04,28,06,28,8.30
2008,04,28,06,29,8.30
2008,04,28,06,30,8.30
2008,04,28,06,31,8.30
2008,04,28,06,32,8.30
2008,04,28,06,33,8.30
2008,04,28,06,34,8.30
2008,04,28,06,35,8.30
2008,04,28,06,36,8.30
2008,04,28,06,37,8.30
2008,04,28,06,38,8.30
2008,04,28,06,39,8.30
2008,04,28,06,40,8.30
2008,04,28,06,41,8.30
2008,04,28,06,42,8.30
2008,04,28,06,43,8.40
2008,04,28,06,44,8.40
2008,04,28,06,45,8.40
2008,04,28,06,46,8.40
2008,04,28,06,47,8.40
2008,04,28,06,48,8.40
2008,04,28,06,49,8.50
2008,04,28,06,50,8.50
2008,04,28,06,51,8.50
2008,04,28,06,52,8.50
2008,04,28,06,53,8.50
2008,04,28,06,54,8.50
2008,04,28,06,55,8.50
2008,04,28,06,56,8.60
2008,04,28,06,57,8.60
2008,04,28,06,58,8.60
2008,04,28,06,59,8.60
2008,04,28,07,00,8.60
2008,04,28,07,01,8.70
2008,04,28,07,02,8.70
2008,04,28,07,03,8.70
2008,04,28,07,04,8.70
2008,04,28,07,05,8.70
2008,04,28,07,06,8.70
2008,04,28,07,07,8.70
2008,04,28,07,08,8.70
2008,04,28,07,09,8.70
2008,04,28,07,10,8.80
2008,04,28,07,11,8.70
2008,04,28,07,12,8.70
2008,04,28,07,13,8.70
2008,04,28,07,14,8.70
2008,04,28,07,15,8.70
2008,04,28,07,16,8.70
2008,04,28,07,17,8.70
2008,04,28,07,18,8.70
2008,04,28,07,19,8.70
2008,04,28,07,20,8.70
2008,04,28,07,21,8.70
2008,04,28,07,22,8.70
2008,04,28,07,23,8.70
2008,04,28,07,24,8.70
2008,04,28,07,25,8.70
2008,04,28,07,26,8.80
2008,04,28,07,27,8.80
2008,04,28,07,28,8.80
2008,04,28,07,29,8.80
2008,04,28,07,30,8.80
2008,04,28,07,31,8.80
2008,04,28,07,32,8.80
2008,04,28,07,33,8.90
2008,04,28,07,34,8.90
2008,04,28,07,35,8.90
2008,04,28,07,36,8.90
2008,04,28,07,37,8.90
2008,04,28,07,38,8.90
2008,04,28,07,39,8.90
2008,04,28,07,40,8.90
2008,04,28,07,41,9.00
2008,04,28,07,42,9.00
2008,04,28,07,43,9.00
2008,04,28,07,44,9.00
2008,04,28,07,45,8.90
2008,04,28,07,46,8.90
2008,04,28,07,47,9.00
2008,04,28,07,48,9.00
2008,04,28,07,49,9.00
2008,04,28,07,50,9.00
2008,04,28,07,51,9.10
2008,04,28,07,52,9.10
2008,04,28,07,53,9.10
2008,04,28,07,54,9.10
2008,04,28,07,55,9.10
2008,04,28,07,56,9.10
2008,04,28,07,57,9.10
2008,04,28,07,58,9.10
2008,04,28,07,59,9.10
2008,04,28,08,00,9.10
2008,04,28,08,01,9.10
2008,04,28,08,02,9.10
2008,04,28,08,03,9.10
2008,04,28,08,04,9.10
2008,04,28,08,05,9.10
2008,04,28,08,06,9.10
2008,04,28,08,07,9.10
2008,04,28,08,08,9.20
2008,04,28,08,09,9.20
2008,04,28,08,10,9.20
2008,04,28,08,11,9.20
2008,04,28,08,12,9.20
2008,04,28,08,13,9.20
2008,04,28,08,14,9.20
2008,04,28,08,15,9.30
2008,04,28,08,16,9.20
2008,04,28,08,17,9.20
2008,04,28,08,18,9.30
2008,04,28,08,19,9.30
2008,04,28,08,20,9.30
2008,04,28,08,21,9.30
2008,04,28,08,22,9.40
2008,04,28,08,23,9.40
2008,04,28,08,24,9.40
2008,04,28,08,25,9.40
2008,04,28,08,26,9.50
2008,04,28,08,27,9.50
2008,04,28,08,28,9.50
2008,04,28,08,29,9.60
2008,04,28,08,30,9.60
2008,04,28,08,31,9.60
2008,04,28,08,32,9.60
2008,04,28,08,33,9.70
2008,04,28,08,34,9.70
2008,04,28,08,35,9.70
2008,04,28,08,36,9.70
2008,04,28,08,37,9.70
2008,04,28,08,38,9.70
2008,04,28,08,39,9.70
2008,04,28,08,40,9.70
2008,04,28,08,41,9.80
2008,04,28,08,42,9.80
2008,04,28,08,43,9.80
2008,04,28,08,44,9.80
2008,04,28,08,45,9.80
2008,04,28,08,46,9.80
2008,04,28,08,47,9.80
2008,04,28,08,48,9.80
2008,04,28,08,49,9.90
2008,04,28,08,50,9.90
2008,04,28,08,51,9.90
2008,04,28,08,52,9.90
2008,04,28,08,53,10.00
2008,04,28,08,54,10.00
2008,04,28,08,55,10.00
2008,04,28,08,56,10.10
2008,04,28,08,57,10.10
2008,04,28,08,58,10.20
2008,04,28,08,59,10.20
2008,04,28,09,00,10.20
2008,04,28,09,01,10.20
2008,04,28,09,02,10.20
2008,04,28,09,03,10.20
2008,04,28,09,04,10.20
2008,04,28,09,05,10.20
2008,04,28,09,06,10.20
2008,04,28,09,07,10.20
2008,04,28,09,08,10.20
2008,04,28,09,09,10.20
2008,04,28,09,10,10.20
2008,04,28,09,11,10.20
2008,04,28,09,12,10.20
2008,04,28,09,13,10.20
2008,04,28,09,14,10.20
2008,04,28,09,15,10.20
2008,04,28,09,16,10.30
2008,04,28,09,17,10.30
2008,04,28,09,18,10.30
2008,04,28,09,19,10.30
2008,04,28,09,20,10.40
2008,04,28,09,21,10.40
2008,04,28,09,22,10.50
2008,04,28,09,23,10.60
2008,04,28,09,24,10.60
2008,04,28,09,25,10.70
2008,04,28,09,26,10.70
2008,04,28,09,27,10.80
2008,04,28,09,28,10.90
2008,04,28,09,29,11.00
2008,04,28,09,30,11.00
2008,04,28,09,31,11.10
2008,04,28,09,32,11.20
2008,04,28,09,33,11.30
2008,04,28,09,34,11.50
2008,04,28,09,35,11.60
2008,04,28,09,36,11.80
2008,04,28,09,37,12.00
2008,04,28,09,38,12.10
2008,04,28,09,39,12.20
2008,04,28,09,40,12.30
2008,04,28,09,41,12.40
2008,04,28,09,42,12.60
2008,04,28,09,43,12.70
2008,04,28,09,44,12.80
2008,04,28,09,45,12.90
2008,04,28,09,46,13.00
2008,04,28,09,47,13.10
2008,04,28,09,48,13.20
2008,04,28,09,49,13.40
2008,04,28,09,50,13.50
2008,04,28,09,51,13.60
2008,04,28,09,52,13.70
2008,04,28,09,53,13.70
2008,04,28,09,54,13.70
2008,04,28,09,55,13.70
2008,04,28,09,56,13.70
2008,04,28,09,57,13.80
2008,04,28,09,58,13.70
2008,04,28,09,59,13.70
2008,04,28,10,00,13.60
2008,04,28,10,01,13.60
2008,04,28,10,02,13.50
2008,04,28,10,03,13.50
2008,04,28,10,04,13.50
2008,04,28,10,05,13.60
2008,04,28,10,06,13.60
2008,04,28,10,07,13.70
2008,04,28,10,08,13.80
2008,04,28,10,09,13.90
2008,04,28,10,10,13.80
2008,04,28,10,11,13.80
2008,04,28,10,12,13.70
2008,04,28,10,13,13.70
2008,04,28,10,14,13.70
2008,04,28,10,15,13.80
2008,04,28,10,16,13.80
2008,04,28,10,17,13.90
2008,04,28,10,18,13.80
2008,04,28,10,19,13.80
2008,04,28,10,20,13.80
2008,04,28,10,21,13.80
2008,04,28,10,22,13.90
2008,04,28,10,23,13.90
2008,04,28,10,24,14.00
2008,04,28,10,25,14.00
2008,04,28,10,26,14.00
2008,04,28,10,27,13.90
2008,04,28,10,28,13.90
2008,04,28,10,29,13.80
2008,04,28,10,30,13.80
2008,04,28,10,31,13.80
2008,04,28,10,32,13.80
2008,04,28,10,33,13.70
2008,04,28,10,34,13.70
2008,04,28,10,35,13.70
2008,04,28,10,36,13.80
2008,04,28,10,37,13.90
2008,04,28,10,38,14.00
2008,04,28,10,39,14.10
2008,04,28,10,40,14.10
2008,04,28,10,41,14.10
2008,04,28,10,42,14.10
2008,04,28,10,43,14.20
2008,04,28,10,44,14.20
2008,04,28,10,45,14.20
2008,04,28,10,46,14.30
2008,04,28,10,47,14.30
2008,04,28,10,48,14.30
2008,04,28,10,49,14.30
2008,04,28,10,50,14.30
2008,04,28,10,51,14.40
2008,04,28,10,52,14.40
2008,04,28,10,53,14.40
2008,04,28,10,54,14.30
2008,04,28,10,55,14.30
2008,04,28,10,56,14.30
2008,04,28,10,57,14.30
2008,04,28,10,58,14.30
2008,04,28,10,59,14.30
2008,04,28,11,00,14.30
2008,04,28,11,01,14.20
2008,04,28,11,02,14.20
2008,04,28,11,03,14.20
2008,04,28,11,04,14.20
2008,04,28,11,05,14.20
2008,04,28,11,06,14.20
2008,04,28,11,07,14.30
2008,04,28,11,08,14.30
2008,04,28,11,09,14.20
2008,04,28,11,10,14.20
2008,04,28,11,11,14.10
2008,04,28,11,12,14.00
2008,04,28,11,13,13.90
2008,04,28,11,14,13.90
2008,04,28,11,15,13.90
2008,04,28,11,16,13.90
2008,04,28,11,17,13.90
2008,04,28,11,18,13.80
2008,04,28,11,19,13.90
2008,04,28,11,20,14.00
2008,04,28,11,21,14.10
2008,04,28,11,22,14.20
2008,04,28,11,23,14.20
2008,04,28,11,24,14.20
2008,04,28,11,25,14.10
2008,04,28,11,26,14.10
2008,04,28,11,27,14.20
2008,04,28,11,28,14.30
2008,04,28,11,29,14.40
2008,04,28,11,30,14.60
2008,04,28,11,31,14.80
2008,04,28,11,32,15.00
2008,04,28,11,33,15.00
2008,04,28,11,34,15.10
2008,04,28,11,35,15.10
2008,04,28,11,36,15.00
2008,04,28,11,37,15.00
2008,04,28,11,38,14.90
2008,04,28,11,39,14.80
2008,04,28,11,40,14.70
2008,04,28,11,41,14.50
2008,04,28,11,42,14.40
2008,04,28,11,43,14.50
2008,04,28,11,44,14.50
2008,04,28,11,45,14.60
2008,04,28,11,46,14.70
2008,04,28,11,47,14.70
2008,04,28,11,48,14.60
2008,04,28,11,49,14.50
2008,04,28,11,50,14.40
2008,04,28,11,51,14.30
2008,04,28,11,52,14.10
2008,04,28,11,53,13.80
2008,04,28,11,54,13.70
2008,04,28,11,55,13.50
2008,04,28,11,56,13.30
2008,04,28,11,57,13.10
2008,04,28,11,58,13.00
2008,04,28,11,59,12.90
2008,04,28,12,00,12.80
2008,04,28,12,01,12.80
2008,04,28,12,02,12.70
2008,04,28,12,03,12.80
2008,04,28,12,04,12.80
2008,04,28,12,05,12.80
2008,04,28,12,06,12.80
2008,04,28,12,07,12.80
2008,04,28,12,08,12.80
2008,04,28,12,09,12.80
2008,04,28,12,10,12.80
2008,04,28,12,11,12.80
2008,04,28,12,12,12.80
2008,04,28,12,13,12.80
2008,04,28,12,14,12.80
2008,04,28,12,15,12.80
2008,04,28,12,16,13.00
2008,04,28,12,17,13.10
2008,04,28,12,18,13.20
2008,04,28,12,19,13.30
2008,04,28,12,20,13.30
2008,04,28,12,21,13.40
2008,04,28,12,22,13.40
2008,04,28,12,23,13.40
2008,04,28,12,24,13.40
2008,04,28,12,25,13.50
2008,04,28,12,26,13.60
2008,04,28,12,27,13.60
2008,04,28,12,28,13.60
2008,04,28,12,29,13.40
2008,04,28,12,30,13.30
2008,04,28,12,31,13.30
2008,04,28,12,32,13.30
2008,04,28,12,33,13.30
2008,04,28,12,34,13.40
2008,04,28,12,35,13.50
2008,04,28,12,36,13.50
2008,04,28,12,37,13.60
2008,04,28,12,38,13.60
2008,04,28,12,39,13.60
2008,04,28,12,40,13.60
2008,04,28,12,41,13.60
2008,04,28,12,42,13.50
2008,04,28,12,43,13.40
2008,04,28,12,44,13.30
2008,04,28,12,45,13.40
2008,04,28,12,46,13.40
2008,04,28,12,47,13.60
2008,04,28,12,48,13.60
2008,04,28,12,49,13.60
2008,04,28,12,50,13.50
2008,04,28,12,51,13.50
2008,04,28,12,52,13.30
2008,04,28,12,53,13.30
2008,04,28,12,54,13.30
2008,04,28,12,55,13.30
2008,04,28,12,56,13.40
2008,04,28,12,57,13.30
2008,04,28,12,58,13.40
2008,04,28,12,59,13.40
2008,04,28,13,00,13.40
2008,04,28,13,01,13.40
2008,04,28,13,02,13.40
2008,04,28,13,03,13.40
2008,04,28,13,04,13.40
2008,04,28,13,05,13.30
2008,04,28,13,06,13.30
2008,04,28,13,07,13.30
2008,04,28,13,08,13.30
2008,04,28,13,09,13.30
2008,04,28,13,10,13.30
2008,04,28,13,11,13.40
2008,04,28,13,12,13.60
2008,04,28,13,13,13.70
2008,04,28,13,14,13.80
2008,04,28,13,15,13.90
2008,04,28,13,16,14.00
2008,04,28,13,17,14.10
2008,04,28,13,18,14.10
2008,04,28,13,19,14.20
2008,04,28,13,20,14.30
2008,04,28,13,21,14.40
2008,04,28,13,22,14.40
2008,04,28,13,23,14.50
2008,04,28,13,24,14.50
2008,04,28,13,25,14.70
2008,04,28,13,26,14.80
2008,04,28,13,27,15.00
2008,04,28,13,28,15.00
2008,04,28,13,29,14.90
2008,04,28,13,30,14.80
2008,04,28,13,31,14.90
2008,04,28,13,32,15.00
2008,04,28,13,33,15.10
2008,04,28,13,34,15.00
2008,04,28,13,35,15.00
2008,04,28,13,36,15.00
2008,04,28,13,37,15.00
2008,04,28,13,38,15.00
2008,04,28,13,39,15.10
2008,04,28,13,40,15.20
2008,04,28,13,41,15.20
2008,04,28,13,42,15.00
2008,04,28,13,43,15.00
2008,04,28,13,44,15.00
2008,04,28,13,45,14.90
2008,04,28,13,46,14.80
2008,04,28,13,47,14.80
2008,04,28,13,48,14.90
2008,04,28,13,49,15.00
2008,04,28,13,50,15.00
2008,04,28,13,51,15.00
2008,04,28,13,52,15.00
2008,04,28,13,53,14.80
2008,04,28,13,54,14.80
2008,04,28,13,55,14.80
2008,04,28,13,56,14.80
2008,04,28,13,57,14.80
2008,04,28,13,58,14.70
